Content
SEND FEEDBACK

Daily
Averages
Monthly
Summary
United States of America

PROVINCETOWN, MASSACHUSETTS


Home > North America > United States > Massachusetts
Elevation: 8 feet     Latitude: 42 04N     Longitude: 070 13W

WEATHER
 
SELECT A DAY
Number of Records: 443,525;   Date Range: 1/1/95 - 9/29/14
 
SHARE

PRINT THIS DATA

[ ← Previous Day ]
WEATHER ALMANAC - FEBRUARY 13, 2013
[ Next Day → ]
[ °C ]   °F
Weather ElementAverageHighLow
Temperature35 °F39.2 °F (12:35 pm)28.4 °F (7:15 pm)
Dewpoint25.2 °F30.2 °F (9:35 pm)21.2 °F (3:15 pm)
Humidity68.8 %100 % (9:35 pm)49 % (3:15 pm)
Barometer29.82 in29.88 in (8:55 am)29.68 in (11:35 pm)
Wind Speed8.1 mph18.4 mph (4:35 am)
Wind Gust23 mph (4:35 am)
Weather ElementAverage
Visibility10 mi
Wind DirectionSSW (214.7 °)

Weather ElementTotal
Precipitation---
Heating Degree Days31.2 (Base 65)
Averaged from 68 records on February 13, 2013
WEATHER CONDITIONS BREAKOUT
WIND DIRECTION BREAKOUT
WEATHER BY HOUR - FEBRUARY 13, 2013
[ °C ]   °F
Local TimeTemperatureDewpointHumidityBarometerVisibilityWind DirectionWind SpeedGust SpeedPrecipitationEventsConditions
12:35 AM35.6 °F26.6 °F70 %29.84 in10.0 miWest (270°)12.7 mphClear
12:55 AM35.6 °F26.6 °F70 %29.84 in10.0 miWest (270°)11.5 mphClear
1:15 AM35.6 °F26.6 °F70 %29.83 in10.0 miWest (270°)11.5 mphClear
1:35 AM35.6 °F26.6 °F70 %29.83 in10.0 miWest (280°)11.5 mphClear
1:55 AM35.6 °F26.6 °F70 %29.84 in10.0 miWest (280°)12.7 mphClear
2:15 AM35.6 °F26.6 °F70 %29.82 in10.0 miWest (280°)15.0 mphClear
2:35 AM35.6 °F26.6 °F70 %29.83 in10.0 miWest (270°)12.7 mphClear
2:55 AM33.8 °F26.6 °F75 %29.84 in10.0 miWest (260°)12.7 mphClear
3:15 AM33.8 °F26.6 °F75 %29.85 in10.0 miWest (260°)11.5 mphMostly Cloudy
3:35 AM33.8 °F26.6 °F75 %29.86 in10.0 miWest (260°)15.0 mphOvercast
3:55 AM35.6 °F26.6 °F70 %29.86 in10.0 miWest (260°)13.8 mph18.4 mphOvercast
4:15 AM35.6 °F26.6 °F70 %29.86 in10.0 miWest (260°)15.0 mphOvercast
4:35 AM35.6 °F24.8 °F65 %29.86 in10.0 miWest (270°)18.4 mph23.0 mphOvercast
4:55 AM35.6 °F26.6 °F70 %29.86 in10.0 miWest (270°)16.1 mph21.9 mphOvercast
5:15 AM33.8 °F24.8 °F70 %29.87 in10.0 miWest (270°)16.1 mph20.7 mphOvercast
5:35 AM33.8 °F24.8 °F70 %29.86 in10.0 miWest (280°)13.8 mph21.9 mphOvercast
5:55 AM33.8 °F26.6 °F75 %29.86 in10.0 miWest (280°)15.0 mph20.7 mphMostly Cloudy
6:15 AM33.8 °F26.6 °F75 %29.86 in10.0 miWNW (290°)17.3 mph21.9 mphOvercast
6:35 AM35.6 °F26.6 °F70 %29.86 in10.0 miWNW (290°)15.0 mph21.9 mphOvercast
6:55 AM35.6 °F24.8 °F65 %29.86 in10.0 miWNW (290°)15.0 mph19.6 mphOvercast
7:15 AM33.8 °F24.8 °F70 %29.87 in10.0 miWest (280°)12.7 mphMostly Cloudy
7:35 AM33.8 °F26.6 °F75 %29.87 in10.0 miWest (280°)12.7 mphClear
7:55 AM35.6 °F24.8 °F65 %29.87 in10.0 miWest (280°)12.7 mphClear
8:15 AM35.6 °F26.6 °F70 %29.87 in10.0 miWNW (290°)11.5 mphClear
8:35 AM35.6 °F26.6 °F70 %29.87 in10.0 miWest (280°)9.2 mphClear
8:55 AM35.6 °F26.6 °F70 %29.88 in10.0 miWest (280°)11.5 mphClear
9:15 AM37.4 °F28.4 °F70 %29.88 in10.0 miWNW (290°)10.4 mphClear
9:35 AM37.4 °F24.8 °F60 %29.88 in10.0 miWNW (290°)15.0 mphClear
9:55 AM37.4 °F26.6 °F65 %29.87 in10.0 miWNW (300°)9.2 mphClear
10:15 AM37.4 °F24.8 °F60 %29.86 in10.0 miWNW (300°)10.4 mphClear
10:35 AM37.4 °F26.6 °F65 %29.86 in10.0 miNW (310°)10.4 mphClear
10:55 AM37.4 °F23.0 °F56 %29.85 in10.0 miNW (310°)6.9 mphClear
11:35 AM37.4 °F24.8 °F60 %29.84 in10.0 miWNW (300°)9.2 mphClear
11:55 AM37.4 °F24.8 °F60 %29.85 in10.0 miWest (280°)10.4 mphClear
12:15 PM37.4 °F23.0 °F56 %29.84 in10.0 miWNW (290°)10.4 mphClear
12:35 PM39.2 °F23.0 °F52 %29.85 in10.0 miWNW (290°)8.1 mphClear
12:55 PM39.2 °F23.0 °F52 %29.84 in10.0 miNW (310°)5.8 mphClear
1:15 PM39.2 °F24.8 °F56 %29.84 in10.0 miNW (320°)5.8 mphClear
1:35 PM39.2 °F24.8 °F56 %29.83 in10.0 miNW (320°)5.8 mphClear
1:55 PM39.2 °F23.0 °F52 %29.82 in10.0 miWNW (300°)4.6 mphClear
2:15 PM39.2 °F23.0 °F52 %29.82 in10.0 miNW (310°)5.8 mphClear
2:35 PM37.4 °F23.0 °F56 %29.82 in10.0 miNorth (350°)3.5 mphClear
2:55 PM39.2 °F23.0 °F52 %29.81 in10.0 miNNW (340°)3.5 mphClear
3:15 PM39.2 °F21.2 °F49 %29.80 in10.0 miCalmClear
3:35 PM39.2 °F21.2 °F49 %29.79 in10.0 miCalmClear
3:55 PM39.2 °F21.2 °F49 %29.78 in10.0 miSE (140°)3.5 mphClear
4:15 PM37.4 °F21.2 °F52 %29.78 in10.0 miSSE (160°)4.6 mphClear
4:35 PM37.4 °F21.2 °F52 %29.78 in10.0 miSE (130°)4.6 mphClear
4:55 PM35.6 °F21.2 °F56 %29.77 in10.0 miSE (130°)4.6 mphClear
5:15 PM35.6 °F21.2 °F56 %29.78 in10.0 miSSE (150°)3.5 mphClear
5:35 PM33.8 °F21.2 °F60 %29.78 in10.0 miSSE (150°)4.6 mphClear
5:55 PM33.8 °F23.0 °F65 %29.78 in10.0 miSE (140°)4.6 mphClear
6:15 PM33.8 °F24.8 °F70 %29.78 in10.0 miSE (140°)4.6 mphClear
6:35 PM33.8 °F24.8 °F70 %29.77 in10.0 miSE (140°)3.5 mphClear
6:55 PM32.0 °F23.0 °F69 %29.77 in10.0 miCalmClear
7:15 PM28.4 °F24.8 °F86 %29.77 in10.0 miSSE (150°)3.5 mphClear
7:55 PM28.4 °F23.0 °F80 %29.76 in10.0 miCalmClear
8:15 PM28.4 °F26.6 °F93 %29.75 in10.0 miEast (100°)3.5 mphClear
8:35 PM28.4 °F24.8 °F86 %29.77 in10.0 miSSE (150°)5.8 mphClear
8:55 PM30.2 °F26.6 °F86 %29.75 in10.0 miSSE (150°)4.6 mphClear
9:15 PM32.0 °F28.4 °F87 %29.74 in10.0 miESE (110°)3.5 mphClear
9:35 PM30.2 °F30.2 °F100 %29.74 in10.0 miCalmClear
10:15 PM30.2 °F28.4 °F93 %29.73 in10.0 miCalmClear
10:35 PM30.2 °F26.6 °F86 %29.73 in10.0 miSSE (160°)3.5 mphMostly Cloudy
10:55 PM30.2 °F28.4 °F93 %29.72 in10.0 miSE (140°)3.5 mphMostly Cloudy
11:15 PM30.2 °F28.4 °F93 %29.70 in10.0 miCalmMostly Cloudy
11:35 PM32.0 °F28.4 °F87 %29.68 in10.0 miCalmOvercast
11:55 PM30.2 °F28.4 °F93 %29.71 in10.0 miCalmOvercast
Hourly data recorded from KPVC, located miles away from Provincetown, Massachusetts







STORIES FROM OUR PARTNERS